Location: Cahoon Acres
(40.8736°N, 111.8994°W)
Time: 16:57:41
(UTC+00:00)

deb Explorer IX - All Passes

Search period start: 06 June 2020 00:00
Search period end: 16 June 2020 00:00
Orbit: 546 x 1100 km, 38.8° (Epoch: 06 June)

Date Brightness Start Highest point End Pass type
(mag) Time Alt. Az. Time Alt. Az. Time Alt. Az.
06 Jun - 01:42:58 10° W 01:47:04 67° S 01:51:30 10° E daylight
06 Jun - 03:29:32 10° W 03:33:39 44° SSW 03:38:16 10° SE visible
06 Jun - 05:17:04 10° WSW 05:20:03 17° SSW 05:23:16 10° S visible
06 Jun - 21:49:36 10° S 21:51:51 14° SSE 21:54:02 10° ESE daylight
06 Jun - 23:34:06 10° SW 23:38:01 43° SSE 23:41:56 10° E daylight
07 Jun - 01:20:27 10° W 01:24:31 67° S 01:28:50 10° E daylight
07 Jun - 03:07:03 10° W 03:11:05 43° SSW 03:15:32 10° SE daylight
07 Jun - 04:54:41 10° WSW 04:57:25 16° SSW 05:00:21 10° S visible
07 Jun - 21:26:50 10° S 21:29:16 15° SSE 21:31:36 10° ESE daylight
07 Jun - 23:11:29 10° SW 23:15:28 43° SSE 23:19:22 10° E daylight
08 Jun - 00:57:54 10° W 01:01:58 67° S 01:06:12 10° E daylight
08 Jun - 02:44:33 10° W 02:48:31 41° SSW 02:52:49 10° SE daylight
08 Jun - 04:32:19 10° WSW 04:34:49 15° SSW 04:37:27 10° S visible
08 Jun - 21:04:03 10° S 21:06:40 15° SSE 21:09:10 10° ESE daylight
08 Jun - 22:48:51 10° SW 22:52:54 44° SSE 22:56:48 10° E daylight
09 Jun - 00:35:21 10° W 00:39:25 67° S 00:43:35 10° E daylight
09 Jun - 02:22:03 10° W 02:25:56 40° SSW 02:30:06 10° SE daylight
09 Jun - 04:09:57 10° WSW 04:12:12 14° SSW 04:14:33 10° S visible
09 Jun - 20:41:14 10° S 20:44:04 16° SSE 20:46:44 10° ESE daylight
09 Jun - 22:26:11 10° WSW 22:30:20 45° SSE 22:34:16 10° E daylight
10 Jun - 00:12:45 10° W 00:16:52 66° S 00:20:58 10° E daylight
10 Jun - 01:59:31 10° W 02:03:21 39° SSW 02:07:25 10° SE daylight
10 Jun - 03:47:35 10° WSW 03:49:35 13° SSW 03:51:38 10° S visible
10 Jun - 20:18:23 10° SSW 20:21:27 17° SSE 20:24:18 10° ESE daylight
10 Jun - 22:03:30 10° WSW 22:07:46 46° SSE 22:11:43 10° E daylight
10 Jun - 23:50:09 10° W 23:54:18 66° S 23:58:22 10° E daylight
11 Jun - 01:36:58 10° W 01:40:47 38° SSW 01:44:45 10° SE daylight
11 Jun - 03:25:15 10° SW 03:26:58 12° SSW 03:28:43 10° S daylight
11 Jun - 19:55:32 10° SSW 19:58:49 18° SSE 20:01:52 10° ESE daylight
11 Jun - 21:40:47 10° WSW 21:45:11 47° SSE 21:49:12 10° E daylight
11 Jun - 23:27:31 10° W 23:31:45 66° S 23:35:48 10° E daylight
12 Jun - 01:14:24 10° W 01:18:12 38° SSW 01:22:05 10° SE daylight
12 Jun - 03:02:54 10° SW 03:04:21 12° SSW 03:05:49 10° SSW daylight
12 Jun - 19:32:39 10° SSW 19:36:11 19° SSE 19:39:25 10° ESE daylight
12 Jun - 21:18:02 10° WSW 21:22:35 48° SSE 21:26:40 10° E daylight
12 Jun - 23:04:51 10° W 23:09:09 67° S 23:13:14 10° E daylight
13 Jun - 00:51:48 10° W 00:55:38 37° SSW 00:59:27 10° SE daylight
13 Jun - 02:40:34 10° SW 02:41:43 11° SSW 02:42:53 10° SSW daylight
13 Jun - 19:09:44 10° SSW 19:13:32 20° SSE 19:16:58 10° ESE daylight
13 Jun - 20:55:16 10° WSW 20:59:58 50° SSE 21:04:09 10° E daylight
13 Jun - 22:42:10 10° W 22:46:35 67° S 22:50:40 10° E daylight
14 Jun - 00:29:11 10° W 00:33:02 37° SSW 00:36:50 10° SE daylight
14 Jun - 02:18:16 10° SW 02:19:05 10° SW 02:19:56 10° SSW daylight
14 Jun - 18:46:50 10° SSW 18:50:52 21° SSE 18:54:30 10° ESE daylight
14 Jun - 20:32:28 10° WSW 20:37:21 51° SSE 20:41:37 10° E daylight
14 Jun - 22:19:27 10° W 22:23:59 67° S 22:28:07 10° E daylight
15 Jun - 00:06:32 10° W 00:10:26 36° SSW 00:14:13 10° SE daylight
15 Jun - 01:56:04 10° SW 01:56:28 10° SW 01:56:53 10° SSW daylight
15 Jun - 18:23:53 10° SSW 18:28:10 22° SSE 18:32:01 10° ESE daylight
15 Jun - 20:09:39 10° WSW 20:14:42 52° SSE 20:19:06 10° E daylight
15 Jun - 21:56:41 10° W 22:01:23 68° S 22:05:34 10° E daylight
15 Jun - 23:43:52 10° W 23:47:51 36° SSW 23:51:37 10° SE daylight
